Temp
2 1 0 1 1 2 2 1 1 2 3 3 2 2 3 4 4 4 4 5 5 6 8 9 9 10 11 11 12 11 11 11 11 12 11 11 11 12 12 12 12 12 12 12
0 0 2 2 2 2 2 1 1 3 3 3 2 2 3 4 3 4 4 4 5 6 7 9 9 10 10 11 13 11 12 11 11 12 12 11 11 12 12 12 12 12 12 13
-0 2 2 2 1 1 1 1 1 2 2 2 2 2 2 3 4 4 5 5 5 6 7 9 9 10 10 10 13 11 11 11 12 11 11 11 11 11 11 11 11 12 12 13
0 2 2 1 1 1 0 2 2 1 1 1 2 1 4 3 3 3 4 4 5 5 6 8 9 9 10 11 12 11 11 11 11 11 11 11 11 11 12 12 12 12 12 12
1 1 1 -1 2 1 1 2 1 1 1 1 3 1 2 2 2 1 2 3 5 5 6 8 9 10 10 11 12 13 11 11 11 12 11 11 11 13 13 13 12 13 12 12
1 2 1 0 2 1 1 -0 1 2 1 -0 3 2 3 1 -1 -1 -0 -1 1 4 6 7 9 9 10 11 11 13 11 11 11 11 11 11 11 12 13 13 12 12 12 12
-1 1 1 1 -1 2 1 -0 -1 -2 -1 0 4 2 1 -1 -1 -3 -3 -3 -2 2 5 7 8 9 10 10 10 13 11 11 11 11 11 10 11 11 11 11 12 12 12 12
-5 -3 -1 -0 -1 -1 0 -0 0 -1 1 2 4 3 3 -1 -2 -5 -4 -3 -2 3 5 7 8 9 10 11 11 12 12 11 10 10 11 11 10 11 11 11 12 11 11 10
-3 -3 1 1 0 0 -1 -2 -1 -2 0 -0 2 0 3 -2 -4 -5 -5 1 2 5 6 7 8 8 9 10 11 10 11 9 9 9 10 11 10 10 11 10 10 10 10 9
-2 -3 1 2 0 1 -0 -1 -3 -2 -1 -1 2 -2 -5 -6 -7 -7 1 1 2 4 4 5 6 6 8 8 9 9 10 10 9 9 9 11 8 9 9 8 8 8 8 8
-2 -3 -1 -1 -3 -2 -3 -4 -3 -3 -1 -0 0 -3 -6 -7 -8 -8 1 2 2 1 1 1 3 6 7 7 8 8 9 9 9 9 10 9 7 7 7 7 6 6 7 6
-2 -3 -3 -4 -3 -0 -2 -5 -4 -4 -1 -3 -2 -3 -7 -8 -9 -7 -1 -0 -1 -1 -1 0 2 5 5 4 6 7 7 9 8 8 9 8 7 6 6 5 5 4 4 4
-2 -2 -4 -1 -0 0 -3 -4 -5 -3 -4 -5 -5 -5 -7 -9 -10 -9 -5 -3 -3 -3 -3 -2 -1 1 1 0 2 3 3 5 5 7 6 5 4 4 2 3 2 2 1 1
-2 -3 -2 -2 -3 -3 -3 -4 -4 -5 -8 -6 -6 -8 -8 -10 -11 -10 -8 -6 -5 -5 -4 -4 -3 -2 -2 -3 -1 1 2 3 4 5 3 3 2 1 0 -1 -1 -0 -0 -0
-3 -5 -5 -5 -5 -3 -3 -4 -5 -7 -7 -7 -7 -8 -9 -11 -11 -11 -10 -8 -7 -7 -6 -6 -5 -4 -5 -4 -2 0 1 2 2 1 1 0 -1 -1 -1 -1 -1 -1 -1 -2
-4 -5 -6 -5 -5 -3 -1 -3 -4 -6 -8 -7 -7 -7 -9 -11 -12 -13 -12 -11 -10 -9 -8 -8 -7 -5 -4 -5 -2 -0 0 0 -1 -1 -1 -1 -1 -1 -2 -2 -2 -2 -1 -2
-4 -2 -4 -3 -5 -3 -2 -4 -5 -6 -8 -8 -9 -9 -10 -11 -12 -13 -13 -13 -12 -11 -10 -9 -6 -6 -5 -2 -2 -1 -1 -1 -0 -1 -2 -2 -2 -2 -2 -2 -2 -2 -2 -2
-3 -3 -6 -6 -6 -1 -1 -3 -5 -5 -7 -9 -9 -10 -10 -10 -12 -13 -14 -13 -13 -12 -9 -8 -8 -7 -5 -3 -2 -2 -1 -2 -2 -2 -3 -3 -2 -2 -3 -3 -3 -4 -4 -4
-5 -5 -7 -4 -6 0 -1 -4 -6 -6 -5 -8 -9 -10 -11 -7 -7 -11 -13 -13 -13 -12 -11 -9 -7 -5 -3 -3 -3 -2 -2 -3 -3 -3 -4 -4 -4 -4 -4 -5 -5 -6 -5 -6
-2 -4 -5 -9 -5 -1 -3 -5 -5 -6 -2 -8 -10 -11 -12 -8 -8 -12 -13 -12 -10 -9 -6 -5 -4 -4 -2 -3 -3 -1 -2 -3 -4 -4 -5 -5 -5 -5 -6 -6 -7 -7 -7 -7
-7 -7 -7 -10 -7 -3 -7 -6 -5 -2 -2 -8 -10 -11 -12 -13 -14 -13 -12 -11 -9 -8 -6 -5 -4 -3 -5 -5 -4 -3 -4 -4 -6 -5 -5 -5 -6 -6 -6 -7 -7 -8 -8 -8
-4 -6 -9 -11 -7 -1 -6 -5 -3 -7 -8 -7 -9 -10 -11 -12 -12 -11 -10 -8 -7 -6 -5 -5 -4 -4 -5 -5 -5 -5 -7 -7 -6 -6 -6 -7 -7 -8 -8 -7 -8 -8 -8 -9
-3 -4 -5 -5 -5 -6 -6 -7 -7 -7 -6 -7 -8 -9 -9 -10 -9 -9 -8 -7 -7 -6 -6 -6 -5 -6 -6 -6 -6 -6 -7 -7 -7 -7 -7 -8 -8 -8 -8 -8 -8 -9 -9 -10
-4 -3 -5 -5 -6 -5 -5 -4 -5 -6 -6 -6 -6 -7 -8 -8 -8 -8 -7 -7 -7 -7 -6 -6 -6 -6 -7 -7 -7 -7 -8 -7 -7 -7 -8 -8 -8 -9 -9 -9 -9 -10 -10 -11
-3 -4 -4 -5 -5 -5 -4 -4 -4 -4 -5 -5 -6 -6 -6 -6 -6 -6 -7 -7 -7 -6 -6 -6 -6 -6 -7 -8 -8 -8 -8 -8 -7 -8 -8 -9 -9 -9 -10 -11 -11 -12 -12 -12
-3 -4 -2 -1 1 -0 1 -1 -3 -3 -4 -4 -4 -5 -6 -6 -6 -6 -6 -6 -6 -7 -7 -7 -7 -7 -8 -8 -8 -9 -9 -9 -9 -9 -9 -10 -10 -11 -11 -12 -12 -12 -13 -13
Height
1460 1462 1461 1454 1453 1449 1446 1443 1436 1424 1423 1423 1417 1408 1406 1405 1404 1402 1399 1397 1397 1399 1401 1400 1402 1404 1404 1407 1409 1408 1411 1411 1416 1418 1430 1438 1444 1450 1455 1461 1465 1470 1474 1479
1463 1460 1452 1450 1448 1445 1443 1439 1427 1414 1414 1415 1407 1400 1396 1395 1392 1392 1391 1390 1391 1394 1395 1396 1398 1401 1402 1407 1405 1405 1407 1411 1411 1413 1428 1432 1440 1447 1452 1458 1461 1467 1471 1475
1463 1454 1450 1449 1446 1443 1437 1436 1424 1421 1412 1410 1404 1396 1385 1379 1379 1381 1381 1380 1384 1387 1391 1391 1393 1395 1398 1402 1402 1406 1406 1413 1414 1414 1421 1428 1436 1445 1446 1452 1457 1463 1467 1471
1458 1450 1450 1447 1445 1442 1435 1424 1423 1418 1417 1410 1404 1397 1377 1374 1374 1376 1375 1377 1376 1379 1383 1385 1388 1391 1392 1395 1396 1404 1407 1408 1411 1412 1407 1418 1426 1431 1435 1445 1453 1457 1462 1467
1459 1451 1448 1450 1442 1441 1434 1423 1421 1415 1412 1411 1394 1405 1382 1377 1381 1384 1381 1377 1376 1376 1377 1379 1383 1387 1388 1389 1391 1401 1404 1407 1401 1409 1411 1418 1425 1429 1432 1442 1447 1453 1458 1462
1457 1451 1450 1449 1440 1435 1430 1425 1407 1403 1406 1412 1386 1392 1383 1393 1400 1389 1383 1379 1377 1373 1373 1375 1379 1383 1384 1386 1396 1395 1401 1407 1405 1409 1407 1418 1419 1426 1428 1436 1441 1448 1453 1458
1462 1454 1451 1448 1443 1430 1430 1425 1424 1427 1419 1406 1385 1390 1393 1401 1396 1396 1384 1377 1372 1370 1371 1373 1376 1381 1384 1388 1390 1395 1403 1406 1408 1410 1415 1421 1424 1422 1429 1434 1438 1443 1447 1452
1489 1473 1458 1452 1453 1447 1437 1435 1426 1431 1400 1397 1382 1385 1381 1396 1392 1388 1378 1366 1364 1365 1366 1371 1376 1380 1384 1385 1390 1397 1404 1408 1412 1414 1417 1423 1417 1421 1423 1423 1434 1437 1438 1444
1488 1479 1457 1455 1450 1450 1442 1439 1438 1434 1412 1412 1386 1400 1388 1400 1388 1374 1362 1348 1357 1361 1365 1371 1377 1383 1385 1390 1393 1400 1404 1408 1412 1412 1414 1418 1418 1421 1422 1425 1427 1434 1439 1441
1488 1483 1458 1453 1453 1452 1452 1450 1445 1431 1424 1415 1390 1419 1440 1422 1412 1390 1365 1359 1364 1368 1371 1374 1378 1381 1384 1390 1395 1397 1403 1407 1412 1413 1415 1418 1421 1418 1418 1421 1427 1427 1430 1436
1488 1489 1465 1460 1469 1462 1457 1456 1450 1443 1429 1420 1410 1436 1448 1442 1432 1411 1380 1375 1374 1378 1378 1379 1383 1385 1388 1391 1395 1399 1404 1411 1414 1416 1416 1424 1431 1424 1422 1424 1428 1429 1434 1437
1490 1487 1483 1478 1469 1465 1465 1466 1458 1452 1431 1439 1430 1437 1447 1446 1434 1416 1396 1391 1387 1389 1387 1386 1389 1389 1392 1397 1400 1402 1408 1410 1414 1418 1422 1426 1430 1431 1431 1429 1432 1434 1434 1437
1493 1487 1492 1471 1467 1464 1464 1466 1459 1446 1448 1458 1454 1454 1456 1450 1435 1423 1415 1407 1403 1399 1395 1396 1395 1397 1402 1406 1407 1408 1410 1414 1421 1416 1425 1431 1433 1436 1438 1436 1437 1442 1441 1441
1493 1492 1490 1492 1487 1484 1475 1473 1471 1468 1478 1472 1471 1475 1461 1456 1448 1438 1428 1423 1416 1408 1407 1407 1406 1409 1412 1414 1417 1416 1419 1425 1422 1426 1434 1434 1436 1443 1446 1449 1451 1448 1448 1449
1496 1504 1498 1493 1488 1484 1485 1482 1480 1481 1483 1480 1479 1477 1476 1473 1466 1456 1446 1437 1423 1420 1418 1420 1421 1421 1423 1422 1422 1422 1425 1427 1432 1436 1439 1441 1449 1458 1457 1456 1458 1458 1456 1457
1500 1507 1504 1497 1490 1486 1480 1483 1484 1485 1488 1485 1480 1477 1482 1478 1471 1460 1452 1443 1436 1435 1434 1434 1431 1430 1429 1432 1430 1432 1434 1441 1447 1448 1451 1458 1463 1465 1463 1463 1463 1466 1461 1461
1505 1501 1502 1499 1494 1486 1486 1493 1495 1497 1499 1496 1494 1497 1489 1485 1478 1470 1462 1455 1451 1449 1448 1445 1440 1441 1442 1441 1443 1445 1451 1456 1455 1458 1462 1465 1462 1462 1464 1466 1467 1467 1466 1469
1506 1502 1511 1514 1503 1491 1502 1503 1502 1500 1501 1501 1501 1499 1493 1490 1484 1475 1469 1465 1463 1461 1457 1452 1454 1454 1454 1455 1456 1459 1462 1464 1465 1465 1467 1470 1470 1469 1472 1475 1475 1474 1474 1473
1508 1508 1520 1514 1529 1502 1503 1509 1511 1509 1506 1509 1505 1498 1493 1487 1485 1481 1483 1480 1477 1474 1472 1470 1468 1466 1465 1467 1469 1469 1470 1471 1471 1473 1477 1478 1479 1480 1481 1481 1481 1479 1480 1480
1505 1506 1512 1537 1532 1516 1514 1513 1511 1511 1508 1516 1513 1508 1501 1493 1488 1504 1496 1490 1486 1482 1480 1478 1478 1478 1478 1478 1479 1477 1477 1479 1479 1483 1485 1487 1489 1486 1486 1488 1487 1486 1488 1488
1524 1523 1534 1547 1542 1519 1516 1510 1508 1512 1524 1523 1521 1516 1511 1508 1512 1511 1505 1500 1496 1493 1492 1490 1488 1486 1487 1490 1489 1485 1487 1485 1489 1492 1493 1493 1495 1494 1495 1495 1495 1495 1495 1494
1527 1533 1544 1552 1542 1524 1514 1509 1510 1522 1522 1523 1522 1521 1518 1515 1514 1512 1508 1505 1503 1502 1501 1499 1498 1496 1497 1497 1497 1493 1492 1498 1500 1502 1501 1502 1502 1503 1504 1502 1501 1501 1500 1499
1524 1524 1529 1529 1528 1521 1520 1519 1520 1520 1520 1522 1522 1522 1522 1520 1518 1517 1515 1513 1511 1509 1507 1507 1505 1506 1506 1506 1505 1503 1505 1509 1509 1509 1508 1509 1510 1509 1507 1506 1505 1503 1503 1502
1518 1517 1521 1524 1520 1519 1518 1518 1518 1519 1520 1521 1521 1522 1522 1521 1521 1520 1519 1518 1517 1516 1515 1515 1515 1513 1513 1514 1514 1514 1516 1517 1516 1514 1514 1513 1512 1511 1510 1509 1508 1508 1507 1505
1511 1512 1514 1516 1514 1515 1514 1514 1515 1517 1519 1521 1522 1523 1523 1523 1523 1523 1523 1522 1522 1521 1521 1521 1520 1519 1519 1520 1520 1521 1522 1522 1520 1518 1517 1517 1517 1516 1514 1512 1510 1509 1509 1509
1497 1496 1502 1501 1492 1498 1500 1507 1511 1514 1516 1519 1521 1522 1524 1525 1525 1526 1526 1525 1525 1526 1526 1525 1525 1525 1525 1525 1524 1524 1526 1527 1525 1522 1522 1521 1520 1519 1518 1517 1516 1516 1514 1512
Wind_Speed
3 2 6 10 8 14 15 17 23 22 17 16 18 21 19 20 23 19 27 28 27 25 23 22 19 15 18 17 19 22 29 25 27 29 35 40 43 40 36 34 29 27 27 28
3 5 7 6 7 13 13 18 22 21 12 11 17 22 19 17 15 23 26 28 28 22 22 23 21 15 13 21 16 16 25 20 32 38 33 36 41 39 35 34 30 27 27 27
4 8 10 10 11 10 13 12 18 19 17 10 17 16 15 17 22 29 30 33 27 26 25 26 23 17 10 19 23 9 23 31 37 39 32 36 35 36 38 37 34 30 27 28
6 3 11 13 5 7 11 4 10 13 11 5 5 7 12 6 11 10 20 26 28 29 28 27 24 17 14 14 16 12 9 18 29 35 48 44 43 43 39 36 32 31 32 30
6 11 13 4 10 14 9 14 16 19 14 12 8 5 6 6 9 15 14 17 15 23 27 27 24 17 11 13 11 14 7 8 15 29 35 38 35 37 32 31 32 35 31 31
12 6 1 3 16 13 14 11 20 9 6 4 4 8 3 5 12 17 16 24 22 18 22 24 20 15 10 8 15 10 8 5 6 17 15 23 43 38 34 31 33 32 29 29
8 5 4 3 11 8 17 14 4 5 2 4 5 5 5 17 22 19 22 27 26 20 18 18 19 15 11 8 11 12 12 7 7 4 7 17 38 35 29 28 29 28 29 28
5 8 7 8 2 9 14 8 4 5 4 7 7 3 4 23 30 32 31 35 23 16 14 12 14 14 10 4 8 14 13 10 2 3 4 16 23 26 21 24 25 24 24 25
5 5 3 8 5 9 9 7 16 5 10 4 3 8 2 30 34 36 38 3 10 9 12 9 7 4 4 4 4 12 9 5 2 4 5 10 13 20 23 23 21 27 25 23
3 6 3 6 6 4 9 11 5 3 4 4 5 6 10 29 33 34 18 13 17 10 11 10 9 7 6 8 13 14 16 10 5 4 2 15 7 10 10 12 10 8 6 7
3 2 8 4 6 13 10 8 4 5 3 3 4 3 11 20 26 27 18 26 30 27 27 29 26 24 21 17 18 20 16 10 10 12 14 14 12 15 13 12 16 13 7 8
3 3 5 5 4 8 9 14 5 3 4 3 3 2 19 21 23 26 25 28 33 33 35 38 35 35 32 31 30 31 31 28 28 25 17 13 16 17 21 25 23 21 20 18
7 3 5 9 2 8 8 22 18 2 4 12 4 5 16 22 23 38 29 29 30 35 41 42 44 42 40 39 40 40 40 38 35 31 26 28 30 28 28 28 27 26 26 26
3 2 2 2 6 3 18 22 21 13 3 5 7 11 23 25 25 28 34 28 30 37 39 40 46 45 43 43 43 44 43 39 38 33 34 36 34 32 32 32 32 32 32 31
3 1 3 6 3 0 13 15 20 18 12 6 8 11 17 18 18 23 25 25 36 38 41 39 41 44 43 45 47 46 45 41 38 40 39 40 38 35 35 35 34 33 32 32
4 3 4 4 4 4 9 21 18 17 14 6 10 9 17 23 25 28 30 31 36 37 36 36 42 44 45 45 50 47 45 43 42 43 42 38 36 35 35 34 34 32 33 31
5 5 5 5 7 5 5 19 11 11 15 6 9 8 15 13 19 28 31 35 34 34 34 38 44 44 45 48 48 47 44 40 41 40 38 36 35 35 35 33 31 32 32 29
6 5 2 3 7 8 5 11 3 6 19 19 11 12 11 5 20 35 38 36 34 33 39 42 41 43 44 44 44 43 41 40 40 39 38 35 34 35 33 31 31 31 30 30
7 1 3 4 2 1 3 8 7 6 10 17 15 17 22 5 15 36 35 31 30 33 35 38 40 42 43 43 40 41 41 41 40 39 36 34 32 32 31 32 31 31 28 28
2 4 4 4 5 4 4 5 10 2 10 20 23 21 22 17 13 6 25 29 33 36 38 40 41 41 39 40 38 39 39 37 38 35 34 32 30 31 31 30 30 30 28 28
5 4 4 3 1 5 3 19 2 5 1 11 14 15 15 6 6 9 18 24 28 32 33 35 36 38 37 35 35 39 37 39 35 32 30 30 30 30 29 28 27 27 26 25
1 2 1 2 4 4 17 3 6 3 3 3 6 8 10 12 12 16 20 25 28 31 32 32 33 34 34 33 33 37 39 34 31 29 29 29 29 29 27 26 25 24 24 25
1 4 3 4 4 2 5 8 6 5 3 1 2 3 6 10 13 16 20 23 26 27 29 29 31 31 31 31 31 35 34 29 28 29 30 29 26 25 25 25 25 25 25 27
2 5 3 3 4 3 3 4 5 4 4 4 4 5 8 13 14 17 19 21 22 24 25 26 27 30 32 31 30 31 28 25 24 26 27 26 26 26 26 26 26 25 27 28
3 9 5 2 3 4 10 12 9 9 9 8 9 9 10 12 14 15 17 18 20 21 22 22 25 27 28 27 27 26 23 21 22 25 26 26 25 25 25 27 28 29 29 27
12 7 5 5 20 8 15 19 16 15 14 12 12 13 12 12 13 14 16 17 18 18 19 20 22 22 24 23 24 24 21 19 21 24 25 25 26 26 25 24 23 23 23 23
Wind_Direction
307 295 253 274 244 257 273 281 284 280 283 279 267 262 258 261 257 249 253 260 262 267 270 268 275 295 227 237 250 226 229 226 240 187 204 209 208 208 212 216 216 216 217 216
330 256 270 287 283 285 283 282 280 282 284 276 271 268 267 256 250 242 243 254 256 256 263 264 267 277 227 229 237 225 226 236 205 193 199 209 212 212 216 217 217 219 222 223
265 274 311 333 314 291 282 271 282 279 307 262 271 277 261 254 245 246 244 246 247 249 254 258 260 263 247 222 227 255 220 219 210 193 198 201 210 218 217 219 218 217 223 227
271 286 321 316 307 350 301 312 291 288 306 296 76 298 300 260 245 237 248 249 239 240 244 248 253 256 252 232 219 243 216 220 227 220 198 199 199 205 213 220 218 218 224 229
274 310 331 313 327 332 267 292 284 278 270 289 271 236 279 15 10 357 352 323 277 253 242 235 242 245 248 226 227 238 235 273 247 210 217 206 208 210 215 216 221 222 225 229
292 298 5 277 317 301 275 294 294 269 243 250 259 198 324 24 345 329 324 322 318 290 253 240 233 235 228 216 221 218 229 275 182 239 234 223 219 217 217 218 222 226 226 233
330 334 314 322 329 319 333 335 314 349 8 228 351 190 57 5 353 333 318 308 300 299 253 238 228 217 218 227 196 206 211 220 252 269 291 230 243 234 224 221 225 228 228 234
6 329 19 319 262 309 321 332 319 310 313 313 274 304 123 3 346 329 313 295 272 277 239 235 224 211 211 220 204 181 206 217 251 50 253 306 269 241 243 255 239 241 231 250
327 281 269 295 311 31 317 337 304 254 259 238 245 358 299 348 340 341 329 171 207 240 205 169 180 172 195 194 192 200 179 173 183 11 58 320 250 241 231 227 231 233 236 257
287 295 316 311 10 23 346 348 348 339 316 325 42 61 346 344 337 328 357 48 54 58 88 103 97 103 115 108 139 155 156 141 99 48 62 350 132 194 170 169 165 175 179 259
295 185 297 11 9 345 6 358 316 290 272 336 334 88 360 347 332 325 32 56 65 68 75 87 95 99 101 113 122 130 150 147 112 98 90 58 48 66 74 85 77 72 73 60
333 273 289 256 270 14 29 2 337 264 28 320 306 75 8 351 338 349 21 44 63 67 72 85 94 98 98 98 103 107 110 113 103 91 80 82 79 66 65 69 70 74 78 74
352 331 329 349 334 10 21 11 6 358 354 14 21 329 348 350 355 4 11 33 57 65 68 75 83 91 92 91 97 98 97 99 99 97 96 93 88 85 82 79 76 76 75 73
1 295 309 294 263 325 10 17 21 24 26 319 33 337 3 354 357 355 4 26 51 60 64 70 78 87 91 91 94 95 94 94 92 93 93 89 84 80 78 79 80 78 76 76
46 325 335 280 235 289 23 20 20 28 8 37 334 26 7 0 349 351 7 30 49 53 57 64 75 85 86 89 93 95 94 89 90 92 90 88 90 90 88 83 81 80 78 78
4 317 6 295 309 278 5 22 23 23 12 8 355 37 2 1 9 14 22 32 42 46 54 63 78 87 90 91 93 93 92 95 96 93 92 93 92 89 84 82 79 76 75 74
344 327 7 310 334 345 356 10 15 32 30 341 21 330 335 6 17 23 22 33 38 44 58 68 85 85 90 91 93 92 94 94 91 92 92 89 85 83 80 78 77 75 74 73
306 332 58 284 356 37 354 20 348 14 31 20 9 356 345 35 44 37 34 37 48 53 73 82 88 91 93 95 95 97 97 95 93 90 88 87 85 84 83 81 77 75 73 70
206 296 52 65 50 204 9 4 350 360 29 18 3 1 359 70 64 38 38 57 65 78 87 88 90 94 96 95 95 95 93 91 90 88 88 86 85 85 82 78 76 75 74 73
47 47 92 29 79 26 242 328 317 261 40 17 6 5 3 19 66 352 31 64 75 79 86 88 93 94 93 95 97 95 92 90 87 86 85 84 84 80 78 77 73 69 65 64
345 8 71 23 73 292 280 317 344 58 231 19 17 25 26 51 58 43 67 73 78 85 89 94 96 94 94 93 91 87 87 84 87 88 86 83 79 75 74 74 72 67 62 58
27 14 316 75 52 344 357 338 101 177 114 34 35 48 65 77 78 75 80 82 86 87 88 87 88 89 91 92 90 90 87 88 88 86 85 84 82 78 73 68 67 63 58 54
346 172 185 171 204 260 360 79 106 134 168 144 68 66 92 97 92 91 88 88 88 88 88 89 89 89 88 87 87 88 89 91 90 86 81 78 75 71 68 62 59 57 53 48
237 171 139 82 227 228 210 162 182 187 184 161 150 133 125 113 107 100 96 95 95 95 95 96 98 94 91 87 85 86 90 89 86 82 79 73 65 60 54 51 50 47 45 39
196 150 164 245 223 235 236 212 191 178 174 166 157 149 141 129 119 111 106 102 100 98 99 98 96 95 95 94 90 86 82 80 78 75 69 63 58 54 52 49 47 41 37 28
191 176 174 208 186 175 189 185 182 176 171 169 169 161 155 147 134 126 117 110 108 106 104 104 101 99 98 97 95 91 85 76 70 68 63 58 53 49 47 43 38 36 30 22